This demonstration page uses our WeatherBlox Daily Observations layout. Learn more.

Left ArrowRight Arrow

39.95238, -75.16362

Hourly Observations for September 14, 2019

Temp ( °F °C ) Dew Point ( °F °C ) Humidity (%) Winds ( mph kmh ) Pressure ( in mb ) Visibility ( mi km ) Precip ( " mm )
12:54 am 00:54 Partly Cloudy 63 17.2 52 11.1 68 68 E 8 13 30.38 1029 10 16 0.00 0.00
1:54 am 01:54 Partly Cloudy 63 17.2 54 12.2 73 73 E 8 13 30.36 1028 10 16 0.00 0.00
2:54 am 02:54 Mostly Cloudy 63 17.2 54 12.2 73 73 E 7 11 30.33 1027 10 16 0.00 0.00
3:54 am 03:54 Mostly Cloudy 62 16.7 54 12.2 75 75 E 7 11 30.33 1027 10 16 0.00 0.00
4:54 am 04:54 Partly Cloudy 61 16.1 54 12.2 78 78 E 5 7 30.33 1027 10 16 0.00 0.00
5:54 am 05:54 Partly Cloudy 61 16.1 55 12.8 81 81 E 6 9 30.32 1027 10 16 0.00 0.00
6:54 am 06:54 Mostly Sunny 61 16.1 55 12.8 81 81 ESE 7 11 30.31 1027 10 16 0.00 0.00
7:54 am 07:54 Partly Cloudy 65 18.3 56 13.3 73 73 SSE 7 11 30.31 1027 10 16 0.00 0.00
8:54 am 08:54 Cloudy 68 20 58 14.4 70 70 SSE 7 11 30.32 1027 10 16 0.00 0.00
9:54 am 09:54 Mostly Cloudy 73 22.8 61 16.1 66 66 S 8 13 30.32 1027 10 16 0.00 0.00
10:54 am 10:54 Cloudy 74 23.3 60 15.6 62 62 SSW 12 19 30.31 1026 10 16 0.00 0.00
11:54 am 11:54 Cloudy 73 22.8 62 16.7 69 69 S 9 15 30.28 1025 10 16 0.00 0.00
12:54 pm 12:54 Cloudy 75 23.9 62 16.7 64 64 SSW 12 19 30.26 1025 10 16 0.00 0.00
1:54 pm 13:54 Cloudy 76 24.4 62 16.7 62 62 S 10 17 30.23 1024 10 16 0.00 0.00
2:54 pm 14:54 Cloudy 77 25 63 17.2 62 62 S 10 17 30.21 1023 10 16 0.00 0.00
3:54 pm 15:54 Cloudy 78 25.6 62 16.7 58 58 S 12 19 30.19 1022 10 16 0.00 0.00
4:54 pm 16:54 Mostly Cloudy 78 25.6 63 17.2 60 60 SSW 12 19 30.18 1022 10 16 0.00 0.00
5:54 pm 17:54 Mostly Cloudy 78 25.6 64 17.8 62 62 SSW 7 11 30.17 1022 10 16 0.00 0.00
6:54 pm 18:54 Mostly Cloudy 77 25 65 18.3 66 66 S 7 11 30.16 1022 10 16 0.00 0.00
7:54 pm 19:54 Mostly Cloudy 76 24.4 66 18.9 72 72 S 9 15 30.17 1022 10 16 0.00 0.00
8:54 pm 20:54 Cloudy 75 23.9 67 19.4 76 76 S 6 9 30.18 1022 10 16 0.00 0.00
9:54 pm 21:54 Cloudy 74 23.3 67 19.4 79 79 SSW 5 7 30.18 1022 10 16 0.00 0.00
10:54 pm 22:54 Cloudy 73 22.8 67 19.4 81 81 S 6 9 30.18 1022 10 16 0.00 0.00
11:54 pm 23:54 Cloudy 73 22.8 68 20 84 84 S 5 7 30.17 1022 10 16 0.00 0.00

Powered by AerisWeather